Location: Gamarra
(10.0780°N, 67.4929°W)
Time: 04:53:47
(UTC+00:00)

H-2A R/B - Pass Details

Date: 13 April 2024
Orbit: 265 x 31756 km, 28.0° (Epoch: 28 May)

Event Time Altitude Azimuth Distance (km) Brightness Sun altitude
Rises 14:26:16 0° 266° (W) 11,935 7.8 59.4°
Reaches altitude 10° 14:35:40 10° 259° (WSW) 13,341 8.1 61.7°
Maximum altitude 22:53:08 69° 158° (SSE) 2,405 4.4 -3.9°
Drops below altitude 10° 22:59:32 10° 75° (ENE) 2,785 4.3 -5.4°
Enters shadow 23:00:33 - 72° (ENE) 3,157 4.6 -5.7°
